RH
55 69 70 72 69 58 43 51 56 48 64 53 55 54 45 44 51 52 54 64 63 62 69 65 62 62 69 61 62 63 66 65 67 69 73 76 78 87 92 92 87 88 88 89
49 75 71 64 51 49 48 58 54 46 59 57 57 53 49 47 51 61 60 68 73 71 65 62 63 70 64 67 70 72 70 72 72 71 74 82 89 89 95 95 91 87 88 88
54 66 60 52 53 48 72 65 71 67 62 61 63 36 38 50 50 52 54 72 72 67 58 63 60 71 66 66 68 67 71 75 78 72 74 77 82 84 82 83 87 88 89 89
66 62 61 60 61 52 42 74 66 70 62 46 56 28 37 66 54 54 64 62 69 67 64 60 60 63 64 64 72 73 73 75 74 79 78 77 80 81 82 89 90 88 89 92
65 70 64 64 70 60 64 70 78 81 90 85 68 78 50 65 54 52 68 69 69 69 68 61 50 49 53 56 63 72 74 72 78 85 86 83 83 84 83 86 85 84 85 88
75 68 72 73 70 70 69 67 66 84 88 74 78 82 68 69 58 53 68 65 59 61 47 48 48 48 48 53 57 60 60 61 65 77 86 90 90 88 87 84 83 82 84 89
66 76 77 69 75 75 58 66 70 61 74 68 84 87 68 48 55 53 58 61 60 47 48 49 52 53 52 54 59 58 62 61 64 65 69 77 86 90 90 86 87 84 86 88
62 48 77 74 77 74 72 54 70 34 50 53 66 85 65 53 57 58 59 61 54 46 44 49 54 56 57 57 61 64 65 64 65 64 66 69 71 85 86 86 85 87 89 89
59 56 76 74 77 66 75 82 64 62 79 84 67 51 43 52 64 66 62 54 46 46 44 48 53 56 58 60 62 66 66 66 66 67 68 67 68 72 78 78 83 85 85 79
60 44 74 80 76 78 75 63 65 80 40 42 58 52 68 74 67 67 66 51 45 45 45 46 55 57 59 62 64 64 65 65 66 68 68 65 69 68 71 75 74 76 78 79
56 37 50 75 77 75 86 85 79 70 64 48 37 56 57 67 67 66 60 49 46 47 48 50 60 61 63 65 65 66 66 68 68 69 70 73 72 71 71 72 72 73 75 73
72 45 58 52 75 70 74 72 68 63 38 74 57 61 41 53 64 56 51 44 50 56 56 58 63 64 66 67 67 67 68 70 70 71 75 75 75 75 76 76 74 75 73 70
54 43 58 35 58 70 76 78 65 67 74 73 62 38 33 70 73 51 45 48 54 61 61 65 64 65 68 69 69 68 69 72 72 75 79 79 79 81 82 81 80 78 78 76
49 53 35 40 29 64 66 60 78 69 91 74 66 51 49 55 62 53 53 49 59 62 59 64 65 68 71 71 71 70 71 73 75 78 81 82 83 84 84 84 84 84 83 82
59 57 69 61 54 51 52 52 65 82 68 58 43 54 37 34 42 54 55 49 56 59 63 66 64 66 71 74 73 71 73 75 78 81 83 83 83 84 85 85 87 88 87 84
78 62 79 76 72 71 72 67 57 58 64 72 61 57 35 36 43 44 48 48 57 60 61 62 65 68 68 76 73 71 72 75 79 81 80 79 80 82 84 85 87 89 89 89
82 76 85 85 81 76 75 71 74 73 67 58 68 52 52 52 45 45 47 51 56 62 61 60 62 63 66 70 68 66 73 76 74 77 75 77 81 83 84 88 88 86 89 92
85 80 82 90 80 90 64 57 58 62 61 57 56 55 50 48 47 50 50 53 60 61 60 61 65 66 69 69 64 68 70 66 69 69 73 76 81 83 84 88 88 90 90 91
78 81 78 88 93 74 55 51 55 56 48 57 61 54 54 63 67 58 60 63 63 65 63 64 67 70 72 72 63 71 64 62 64 58 69 74 80 82 81 82 88 90 91 91
72 76 77 94 95 91 64 46 43 47 65 59 58 61 70 68 71 65 58 67 65 66 68 68 68 73 76 66 65 68 59 60 55 55 65 74 78 79 79 81 88 89 91 93
90 87 87 85 93 84 62 56 53 69 63 57 60 62 63 68 63 56 63 65 67 70 70 70 73 76 70 59 67 66 62 56 50 63 69 73 76 75 74 81 89 91 91 92
87 92 94 89 92 94 60 62 63 56 69 70 65 64 63 61 61 61 61 68 74 74 72 73 77 74 66 61 68 69 66 56 57 63 68 69 71 65 58 79 84 88 90 92
79 69 73 71 73 58 61 56 53 61 67 76 74 64 66 68 66 66 71 75 73 72 71 70 67 64 60 64 72 73 65 56 55 62 63 62 64 64 67 77 78 80 89 94
75 65 71 70 71 65 63 56 55 58 63 62 64 64 63 72 76 78 82 88 85 76 64 60 60 62 66 69 73 70 65 61 61 63 59 57 66 60 65 76 76 82 86 90
71 80 78 83 71 68 69 62 63 66 68 70 71 76 78 84 90 88 89 83 78 71 70 73 76 80 82 79 80 74 69 64 65 64 63 64 64 66 66 67 70 76 78 82
82 75 74 75 73 81 75 69 71 76 82 86 88 87 85 86 89 88 88 86 80 84 88 89 85 85 77 77 76 66 70 69 71 67 66 70 74 74 73 75 73 66 67 69
Wind_Speed
5 10 3 2 2 3 5 3 2 1 2 4 2 9 8 9 3 7 7 2 2 6 2 4 5 5 3 0 3 4 5 5 2 2 2 2 3 3 2 3 5 5 4 4
8 4 2 1 5 6 6 3 3 4 3 2 6 14 6 3 2 3 4 5 4 4 4 4 4 2 2 3 5 5 5 5 3 2 2 2 2 4 4 3 5 5 4 5
8 3 2 3 6 5 4 3 1 2 7 2 8 7 3 0 2 3 5 2 2 4 4 3 2 2 2 4 5 5 5 5 4 3 1 2 2 2 3 2 3 3 5 5
7 2 2 4 5 2 1 1 2 3 6 3 5 7 5 2 1 3 4 3 3 3 2 3 4 4 5 4 5 5 5 6 4 2 2 3 2 2 3 2 3 5 6 6
2 2 4 6 1 2 2 3 3 2 4 3 3 4 8 2 4 4 2 3 3 3 4 4 5 4 4 5 5 5 5 5 5 3 3 3 4 4 4 4 6 6 5 6
3 1 3 3 3 4 5 4 6 4 2 4 3 5 8 4 5 3 3 4 5 5 4 4 3 5 5 5 6 6 7 5 7 5 4 5 7 7 5 5 4 4 4 4
5 3 2 2 3 2 4 6 5 8 6 6 2 3 13 5 4 5 8 7 6 4 4 4 6 6 6 7 7 6 7 7 7 7 6 5 6 6 7 7 5 6 4 3
5 7 2 3 2 4 2 4 7 6 2 6 2 7 9 5 4 5 6 7 5 5 3 5 5 4 5 6 6 7 7 7 7 7 8 7 6 4 4 5 5 4 4 5
4 1 1 3 1 2 2 1 2 7 2 3 4 9 8 4 3 2 6 5 6 6 4 5 4 4 4 5 5 5 7 7 7 7 6 7 6 6 5 7 4 4 6 5
3 3 1 0 2 3 1 5 4 3 1 5 6 7 8 5 9 7 6 8 6 5 5 5 3 4 4 3 4 6 7 6 6 7 6 5 6 6 6 5 6 6 6 4
3 3 2 2 4 7 2 1 4 3 4 5 3 9 7 6 8 10 9 8 8 7 6 5 2 3 3 3 5 6 6 6 6 6 6 7 7 7 6 6 6 6 6 6
1 4 3 5 2 2 2 4 5 5 3 1 2 12 3 6 7 7 8 7 6 5 5 4 1 3 4 5 5 6 6 6 6 6 6 7 6 6 7 7 7 7 7 7
4 1 3 6 4 2 3 5 4 4 3 6 5 9 2 3 2 5 8 8 6 4 5 2 2 4 5 6 6 6 6 6 6 6 6 6 6 6 7 7 7 7 7 7
4 2 5 7 4 3 4 4 5 5 3 5 9 9 4 2 6 7 8 7 6 4 5 2 2 3 4 4 5 6 7 6 6 6 6 6 7 7 6 6 7 7 7 6
5 3 3 5 7 4 6 7 8 11 11 9 4 10 7 6 8 11 8 5 6 6 6 3 3 4 4 4 5 5 5 5 5 5 5 5 6 6 6 6 6 6 6 6
1 2 3 5 1 5 7 12 15 12 9 11 18 24 20 14 8 6 9 8 8 7 7 4 4 5 5 5 5 5 6 6 4 5 6 6 6 7 7 7 7 7 7 6
4 3 2 6 3 7 8 10 11 6 6 7 9 12 5 4 6 6 7 9 9 7 7 5 6 5 6 6 5 4 6 5 5 5 5 6 6 6 6 6 6 7 7 7
6 5 2 4 5 3 5 1 4 9 5 12 9 7 4 4 5 5 5 8 7 7 7 6 5 4 5 3 4 5 5 5 5 5 6 6 6 6 6 6 6 7 5 6
2 4 3 4 5 8 7 2 3 3 2 1 5 8 5 3 2 3 3 3 6 6 5 5 5 4 3 4 5 5 6 5 5 6 6 6 6 7 7 7 7 6 5 6
3 3 4 2 3 7 1 2 2 1 5 3 4 5 4 5 4 5 4 4 6 6 4 5 5 3 4 5 4 4 6 6 6 6 6 6 6 6 7 7 7 4 4 7
3 2 9 7 5 9 6 4 2 2 2 4 4 5 5 2 5 5 6 5 4 2 5 5 5 6 6 5 3 6 6 7 6 6 6 6 6 7 7 7 3 5 6 6
7 6 5 4 4 9 4 2 1 2 4 3 4 4 5 6 8 8 8 5 3 4 6 6 6 6 6 5 3 6 7 7 6 6 7 7 7 5 5 6 6 6 6 6
4 6 4 9 7 2 2 1 3 2 3 2 4 7 6 8 8 7 4 2 3 5 5 4 3 5 6 5 5 6 8 7 6 6 8 8 7 6 6 6 8 6 5 5
4 3 4 0 2 3 3 3 2 3 6 6 8 8 7 9 6 4 4 5 5 5 4 2 4 6 7 7 6 7 9 7 6 8 10 9 6 9 7 5 6 6 6 6
5 2 3 6 6 6 4 10 7 9 7 7 7 6 5 3 2 3 4 5 5 5 5 3 5 6 8 7 8 9 7 6 8 9 8 8 7 9 9 8 8 7 8 9
4 5 6 8 3 2 7 7 9 7 6 7 5 7 5 4 7 5 6 5 5 7 5 5 6 6 9 7 8 10 5 7 7 9 7 7 6 7 7 7 10 13 19 21
Wind_Direction
15 67 64 73 30 89 107 90 17 343 20 340 285 285 292 297 333 348 356 345 60 67 51 103 102 97 87 15 329 308 316 310 330 337 342 356 305 301 293 305 298 305 304 313
31 75 256 305 56 77 50 76 347 293 7 360 348 296 293 309 28 346 30 63 73 98 93 98 99 78 11 316 308 303 287 289 267 211 235 227 249 272 264 273 281 284 303 310
108 179 287 95 46 68 40 82 46 241 323 60 328 310 347 213 96 44 30 34 64 107 89 66 55 26 357 327 318 305 303 303 289 246 272 280 268 291 300 284 293 285 311 299
87 301 96 79 75 41 107 9 82 31 38 275 24 279 293 302 191 67 25 47 67 77 66 55 42 26 0 338 333 333 334 323 304 270 256 253 255 283 254 267 276 295 282 278
257 49 61 66 50 10 135 61 59 71 89 35 359 62 268 321 228 212 175 165 131 106 91 47 27 22 25 15 9 359 349 352 345 310 243 256 270 247 265 271 280 278 279 271
90 58 54 106 61 63 132 70 41 47 83 23 335 117 282 203 208 167 199 208 168 138 98 69 58 48 42 24 29 16 9 1 3 356 316 267 271 285 295 293 287 279 279 285
25 4 358 70 87 44 75 56 336 350 12 223 274 37 246 254 241 202 191 199 192 145 125 87 58 40 28 23 13 5 12 359 354 0 348 319 289 287 282 288 281 293 293 275
127 329 46 1 77 160 82 146 153 218 251 276 337 241 256 216 285 242 173 185 181 171 148 102 72 47 22 15 17 10 5 354 351 352 339 332 327 296 285 279 283 276 269 269
128 242 359 59 62 104 159 121 152 100 19 32 241 285 294 232 244 177 188 186 204 195 162 121 89 46 21 15 7 358 357 352 355 344 335 332 331 338 325 320 301 282 277 275
180 90 355 87 123 28 110 158 71 3 188 273 287 274 244 223 216 218 214 221 219 204 152 144 100 35 11 8 341 0 2 340 326 332 330 327 320 330 329 321 315 313 298 290
120 98 298 35 201 178 124 205 60 114 156 191 291 268 217 226 206 199 215 215 203 192 176 158 103 14 359 349 359 347 349 337 332 332 327 336 335 338 335 331 327 328 318 320
50 130 218 208 134 167 171 194 154 125 226 256 130 274 336 278 222 194 218 213 208 175 156 153 37 358 357 348 345 341 342 344 334 329 332 330 331 337 340 335 330 329 326 322
181 17 360 346 16 22 219 200 157 113 88 202 153 261 335 342 182 227 227 225 206 152 137 147 13 352 345 342 342 343 340 332 326 330 336 337 341 342 337 331 329 329 329 327
81 140 181 191 196 144 235 209 187 157 145 197 229 285 288 296 240 243 246 222 203 182 162 172 306 322 329 327 329 331 327 330 324 334 341 342 338 332 326 319 322 325 327 329
123 219 165 258 244 239 236 223 191 201 211 194 259 229 264 244 237 233 233 197 188 183 179 194 281 302 309 314 315 312 303 317 319 324 327 322 313 315 315 323 325 324 332 334
21 249 155 284 186 202 255 234 224 222 235 256 264 280 283 281 247 238 220 181 189 197 195 224 261 280 293 297 297 300 297 298 307 320 321 322 330 329 326 325 327 325 321 319
144 142 99 269 343 304 283 230 185 192 210 193 209 243 259 255 262 257 225 194 189 187 197 223 238 255 262 254 244 300 308 301 324 320 317 318 316 315 313 313 322 329 327 324
146 139 149 280 344 249 257 28 172 204 224 214 266 276 286 272 265 267 216 174 190 191 213 235 235 252 255 279 322 314 306 315 323 317 316 318 323 317 313 317 318 312 304 314
198 139 195 208 197 285 282 168 142 168 287 338 251 302 305 344 9 339 202 202 203 199 217 232 227 239 244 263 269 279 295 308 312 302 302 306 316 318 320 319 316 308 309 315
84 31 166 131 225 237 295 355 341 106 272 20 53 18 3 3 18 273 323 225 219 230 240 256 282 257 244 263 236 274 292 304 296 293 292 294 297 300 300 295 302 283 287 287
132 202 218 229 264 286 266 297 290 149 261 28 22 357 359 319 221 256 297 262 232 267 312 309 292 255 249 255 247 272 283 281 271 280 283 281 278 278 273 287 270 283 300 297
174 159 202 168 221 269 332 342 256 316 8 326 356 329 298 276 281 277 279 274 334 320 311 302 272 261 262 239 237 285 284 269 277 280 282 277 273 271 283 284 289 286 287 297
242 199 188 193 217 202 321 297 63 76 282 314 294 283 267 276 270 280 280 334 322 304 297 286 280 300 297 286 228 266 265 274 290 298 286 282 285 281 267 271 282 290 278 264
248 161 212 284 208 187 258 75 101 300 264 273 279 279 295 290 313 350 5 312 284 272 277 281 310 284 279 279 256 235 261 271 274 274 277 282 279 290 278 255 253 259 267 270
222 133 240 253 294 343 31 344 310 314 297 294 300 288 283 304 297 255 263 283 296 305 309 294 277 279 276 280 279 276 265 259 261 261 261 265 265 267 274 265 263 255 249 235
192 259 266 283 33 256 275 304 330 333 341 347 340 326 317 296 301 308 310 300 297 299 292 305 303 287 287 286 285 288 275 253 260 272 268 258 255 258 255 265 284 268 267 273